Content
SEND FEEDBACK

Daily
Averages
Monthly
Summary
United States of America

ZUNI, NEW MEXICO


Home > North America > United States > New Mexico
Elevation: 6440 feet     Latitude: 35 06N     Longitude: 108 47W

WEATHER
 
SELECT A DAY
Number of Records: 182,506;   Date Range: 1/1/95 - 8/30/14
 
SHARE

PRINT THIS DATA

[ ← Previous Day ]
WEATHER ALMANAC - JANUARY 31, 2013
[ Next Day → ]
[ °C ]   °F
Weather ElementAverageHighLow
Temperature34.4 °F48.9 °F (3:53 pm)21 °F (5:53 am)
Dewpoint20.9 °F27 °F (5:53 pm)14 °F (5:53 am)
Humidity60.5 %78 % (4:53 am)32 % (2:53 pm)
Barometer30.32 in30.43 in (7:53 am)30.25 in (12:53 pm)
Wind Speed1.6 mph6.9 mph (1:53 pm)
Weather ElementAverage
Visibility10 mi
Wind DirectionENE (71.4 °)

Weather ElementTotal
Precipitation---
Heating Degree Days30.1 (Base 65)
Averaged from 22 records on January 31, 2013
WEATHER CONDITIONS BREAKOUT
WIND DIRECTION BREAKOUT
WEATHER BY HOUR - JANUARY 31, 2013
[ °C ]   °F
Local TimeTemperatureDewpointHumidityBarometerVisibilityWind DirectionWind SpeedGust SpeedPrecipitationEventsConditions
1:53 AM25.0 °F18.0 °F75 %30.29 in10.0 miCalmClear
2:53 AM23.0 °F15.1 °F72 %30.30 in10.0 miCalmClear
3:53 AM25.0 °F17.1 °F72 %30.30 in10.0 miCalmClear
4:53 AM23.0 °F17.1 °F78 %30.33 in10.0 miCalmClear
5:53 AM21.0 °F14.0 °F74 %30.37 in10.0 miCalmClear
6:53 AM21.0 °F14.0 °F74 %30.41 in10.0 miWest (270°)4.6 mphClear
7:53 AM21.9 °F14.0 °F72 %30.43 in10.0 miCalmClear
8:53 AM28.9 °F21.0 °F72 %30.39 in10.0 miCalmClear
9:53 AM35.1 °F21.9 °F59 %30.39 in10.0 miWSW (240°)3.5 mphClear
10:53 AM39.0 °F24.1 °F55 %30.33 in10.0 miCalmClear
11:53 AM43.0 °F24.1 °F47 %30.29 in10.0 miCalmClear
12:53 PM46.0 °F21.0 °F37 %30.25 in10.0 miCalmClear
1:53 PM46.9 °F23.0 °F39 %30.25 in10.0 miSW (230°)6.9 mphClear
2:53 PM48.0 °F19.0 °F32 %30.27 in10.0 miSW (230°)4.6 mphClear
3:53 PM48.9 °F21.0 °F33 %30.26 in10.0 miCalmClear
4:53 PM48.9 °F25.0 °F39 %30.26 in10.0 miSW (220°)4.6 mphClear
5:53 PM41.0 °F27.0 °F57 %30.32 in10.0 miSouth (180°)4.6 mphClear
6:53 PM39.0 °F26.1 °F60 %30.35 in10.0 miSSW (200°)5.8 mphClear
7:53 PM37.0 °F26.1 °F65 %30.35 in10.0 miCalmClear
8:53 PM34.0 °F26.1 °F73 %30.34 in10.0 miCalmClear
9:53 PM32.0 °F24.1 °F73 %30.32 in10.0 miCalmClear
10:53 PM30.0 °F21.9 °F72 %30.31 in10.0 miCalmClear
Hourly data recorded from KGUP, located miles away from Zuni, New Mexico







STORIES FROM OUR PARTNERS